Find STARLINK-37614

NORAD ID: 70629 Constellation: starlink operational
LEOCIRCULARRETROGRADE

实时位置

正在加载3D地球...

关于 STARLINK-37614

正在加载描述...

即将过境

Passes for default location (London). Set your location on the main map for personalized predictions.

高度历史

Loading altitude history...

两行轨道根数

1 70629C 26101S 26126.29701389 .00436250 00000+0 68064-3 0 1268
2 70629 97.2845 339.8360 0010168 258.3291 263.5419 16.03734136 14
Epoch: May 6, 2026 • Age: 20 hours